FENGYUN 1C DEB

Satellite information

Favourite Embed

Satellite Type and Status

DEBRISIN ORBIT

Key statistics

Satellite FENGYUN 1C DEB at a glance.

Uptime

9618

Days in orbit

Revolutions

≈ 14.7

Per day

Orbit

SSO

Sun Synchronous Orbit

Inclination

99.1

Latest

Satellite identification and parameters

Extended collection of information and parameters for FENGYUN 1C DEB.

Object identification

Identified? True

Debris? True

Object name: FENGYUN 1C DEB

International designator: 1999-025DUT

Object number (NORAD): 36218

Object ID (CCSDS): 36218

Country: PEOPLES REPUBLIC OF CHINA (PRC)

Current information (Y/N): Y

RCS size: SMALL

Orbital parameters

Period: 98.015 minutes

Inclination: 99.0862 deg

SMA: 7041.891 km

Apoapsis: 716.412 km

Periapsis: 611.101 km

RAAN: 79.5502 deg

Eccentricy: 0.00747747

Argument of periapsis: 235.3429 deg

Mean anomaly: 124.071 deg

Mean motion: 14.69158895 rev/day

Mean motion (dot): 0.00009359 rev/day2

B* drag term: 0.0015328683 1/REarth

Two-line elements (TLE)

Creation date: Sept. 7, 2025, 3:09 a.m.

Reference frame: TEME

Reference center: EARTH

Epoch: Sept. 6, 2025, 11:44 a.m. UTC

TLE line 0: 0 FENGYUN 1C DEB

TLE line 1: 1 36218U 99025DUT 25249.48955725 .00009359 00000-0 15329-2 0 9990

TLE line 2: 2 36218 99.0862 79.5502 0074775 235.3429 124.0710 14.69158895577147

Live tracking on map

Real-time ground track for satellite FENGYUN 1C DEB.

In-orbit conjunctions

A list of the most updated potential collisions computed for object FENGYUN 1C DEB.

Target Orbit TCA Probability of collision Miss distance Type
SL-14 R/B LEO 2025-04-11 01:25:33 0.0001285796 418.0 (m) ROCKET BODY
SL-14 R/B LEO 2025-01-05 00:26:34 0.0001098274 650.0 (m) ROCKET BODY
RUBIN 9.1/RUBIN 9.2/PSLV SSO 2024-09-11 05:16:21 0.0001168233 385.0 (m) PAYLOAD
IRIDIUM 69 LEO 2024-07-12 02:17:24 0.0001363583 679.0 (m) PAYLOAD

Associated space launch

Chinese polar orbiting meteorological satellite

FENGYUN 1C DEB was lifted into orbit during the mission ‘Long March 4B | Feng Yun 1C’, on board a Long March 4B space rocket.

The launch took place on May 10, 1999, 1:33 a.m. from Launch Complex 7.

For more information about the launch, click the button.

Launch to space Long March 4B | Feng Yun 1C
Long March 4B | Feng Yun 1C

Agency: N/A

Status: Launch Successful

Launch date: May 10, 1999, 1:33 a.m. UTC

Rocket: Long March 4B

Launch pad: Launch Complex 7

Location: Taiyuan Satellite Launch Center, People's Republic of China

...

Latest news about this satellite

There are no fresh news available about this satellite. Check back as we update our databases every day.


Newsletter sign-up

Weekly statistics, charts and insights to help you stay on top of the space industry.